W1JCN Weather Reports


Display with metric or nautical units.
time (UTC)temp
F
wind
direction
speed
MPH
gust
MPH
rain 1hr
in
rain 24hr
in
rain mn
in
humidity
%
barometer
mb
20260902134210 60 205 0.0 4.0 0.00 0.08 0.00 94 1020.2
20260902133310 60 210 0.0 6.0 0.00 0.08 0.00 94 1020.2
20260902132410 60 212 0.0 3.0 0.00 0.08 0.00 94 1019.8
20260902131510 60 211 0.0 3.0 0.00 0.08 0.00 94 1019.6
20260902125710 60 211 1.0 6.0 0.00 0.08 0.00 95 1019.9
20260902124810 60 211 1.0 6.0 0.00 0.10 0.00 95 1019.8
20260902123910 60 206 1.0 3.0 0.00 0.10 0.00 95 1019.8
20260902123010 59 181 0.0 2.0 0.00 0.11 0.00 94 1019.9
20260902122110 59 179 0.0 3.0 0.00 0.12 0.00 95 1020.0
20260902121210 59 0 0.0 0.0 0.00 0.12 0.00 95 1019.9
20260902120310 59 178 0.0 1.0 0.00 0.14 0.00 94 1019.8
20260902115410 58 0 0.0 0.0 0.00 0.14 0.00 94 1019.9
20260902114510 58 0 0.0 0.0 0.00 0.18 0.00 95 1020.0
20260902113610 58 0 0.0 0.0 0.00 0.19 0.00 94 1019.8
20260902110909 58 0 0.0 0.0 0.00 0.21 0.00 94 1020.2
20260902110010 58 0 0.0 0.0 0.00 0.21 0.00 94 1020.3
20260902104210 58 0 0.0 0.0 0.00 0.22 0.00 94 1019.8
20260902103310 58 0 0.0 0.0 0.00 0.22 0.00 94 1019.9
20260902102410 58 0 0.0 0.0 0.00 0.22 0.00 94 1019.8
20260902100609 58 0 0.0 0.0 0.00 0.22 0.00 94 1019.4
20260902095710 58 0 0.0 0.0 0.00 0.22 0.00 94 1019.4
20260902093909 58 0 0.0 0.0 0.00 0.22 0.00 94 1019.3
20260902093009 58 0 0.0 0.0 0.00 0.22 0.00 94 1019.3
20260902092109 58 0 0.0 0.0 0.00 0.22 0.00 94 1019.3
20260902091209 58 0 0.0 0.0 0.00 0.22 0.00 94 1019.2
20260902085409 58 0 0.0 0.0 0.00 0.22 0.00 94 1019.0
20260902083609 58 0 0.0 0.0 0.00 0.22 0.00 94 1019.2
20260902081809 58 0 0.0 0.0 0.00 0.22 0.00 94 1019.1
20260902080009 58 0 0.0 0.0 0.00 0.22 0.00 94 1019.2
20260902075109 58 0 0.0 0.0 0.00 0.22 0.00 94 1019.1
20260902074210 58 0 0.0 0.0 0.00 0.22 0.00 94 1019.0
20260902073309 58 0 0.0 0.0 0.00 0.22 0.00 94 1019.0
20260902072409 58 0 0.0 0.0 0.00 0.22 0.00 94 1019.0
20260902071509 58 0 0.0 0.0 0.00 0.22 0.00 94 1019.3
20260902070609 58 0 0.0 0.0 0.00 0.22 0.00 94 1019.4
20260902065709 59 0 0.0 0.0 0.00 0.22 0.00 94 1019.5
20260902064809 59 0 0.0 0.0 0.00 0.22 0.00 94 1019.4
20260902063909 59 0 0.0 0.0 0.00 0.22 0.00 94 1019.3
20260902062109 59 0 0.0 0.0 0.00 0.22 0.00 94 1019.1
20260902061209 59 0 0.0 0.0 0.00 0.22 0.00 94 1019.1
20260902060309 59 0 0.0 0.0 0.00 0.22 0.00 94 1019.1
20260902054509 59 0 0.0 0.0 0.00 0.22 0.00 94 1019.0
20260902053609 59 0 0.0 0.0 0.00 0.22 0.00 94 1018.8
20260902052709 59 0 0.0 0.0 0.00 0.22 0.00 94 1018.7
20260902051809 59 0 0.0 0.0 0.00 0.22 0.00 94 1018.6
20260902050909 60 0 0.0 0.0 0.00 0.22 0.00 94 1018.6
20260902050009 60 0 0.0 0.0 0.00 0.22 0.00 94 1018.5
20260902045109 60 0 0.0 0.0 0.00 0.22 0.00 94 1018.6
20260902044209 60 0 0.0 0.0 0.00 0.22 0.00 94 1018.3
20260902043309 60 0 0.0 0.0 0.00 0.22 0.00 94 1018.2
20260902042409 60 0 0.0 0.0 0.00 0.22 0.00 94 1018.1
20260902041509 60 0 0.0 0.0 0.00 0.22 0.00 94 1017.9
20260902040609 60 0 0.0 0.0 0.00 0.22 0.00 94 1017.8
20260902035709 60 0 0.0 0.0 0.00 0.22 0.22 94 1017.8
20260902034809 60 0 0.0 0.0 0.00 0.22 0.22 94 1017.9
20260902033909 60 0 0.0 0.0 0.00 0.22 0.22 94 1017.8
20260902033009 60 0 0.0 0.0 0.00 0.22 0.22 94 1018.0
20260902030309 60 0 0.0 0.0 0.00 0.22 0.22 94 1018.0
20260902025409 60 0 0.0 0.0 0.00 0.22 0.22 94 1017.9
20260902024508 60 0 0.0 0.0 0.00 0.22 0.22 94 1017.7
20260902023609 60 0 0.0 0.0 0.00 0.22 0.22 94 1017.4
20260902022709 60 188 0.0 1.0 0.00 0.22 0.22 94 1017.6
20260902021809 60 0 0.0 0.0 0.00 0.22 0.22 94 1017.6
20260902020909 60 187 0.0 1.0 0.00 0.22 0.22 94 1017.7
20260902014209 60 186 0.0 4.0 0.00 0.22 0.22 94 1017.7
20260902013309 60 0 0.0 0.0 0.00 0.22 0.22 94 1017.7
20260902010608 60 0 0.0 0.0 0.00 0.22 0.22 94 1017.5
20260902004808 60 148 0.0 3.0 0.00 0.22 0.22 94 1017.4
20260902003908 60 138 0.0 3.0 0.00 0.22 0.22 94 1017.4
20260902003008 60 193 0.0 4.0 0.00 0.22 0.22 94 1017.0
20260902002108 60 0 0.0 0.0 0.00 0.22 0.22 94 1017.1
20260902001208 60 168 0.0 1.0 0.00 0.22 0.22 94 1016.9
20260902000308 61 165 0.0 3.0 0.00 0.22 0.22 94 1016.9
20260901235408 61 161 0.0 2.0 0.00 0.22 0.22 94 1016.7
20260901234508 61 161 0.0 1.0 0.00 0.22 0.22 94 1016.7
20260901233608 61 0 0.0 0.0 0.00 0.22 0.22 94 1016.5
20260901231808 61 161 0.0 1.0 0.00 0.22 0.22 94 1016.7
20260901230908 61 161 0.0 1.0 0.00 0.22 0.22 94 1016.6
20260901230008 61 161 0.0 1.0 0.01 0.22 0.22 94 1016.6
20260901225108 61 161 0.0 1.0 0.01 0.22 0.22 94 1016.6
20260901224208 61 0 0.0 0.0 0.01 0.22 0.22 94 1016.7
20260901223308 61 161 0.0 1.0 0.01 0.22 0.22 94 1016.7
20260901222408 61 161 0.0 1.0 0.01 0.22 0.22 94 1016.8
20260901221508 61 161 0.0 1.0 0.01 0.22 0.22 94 1016.8
20260901215708 62 162 0.0 2.0 0.00 0.21 0.21 94 1016.5
20260901214808 62 162 0.0 2.0 0.00 0.21 0.21 94 1016.4
20260901213008 62 0 0.0 0.0 0.00 0.21 0.21 94 1016.3
20260901212108 62 0 0.0 0.0 0.01 0.21 0.21 94 1016.3
20260901211208 62 0 0.0 0.0 0.01 0.21 0.21 94 1016.3
20260901210308 62 210 0.0 2.0 0.01 0.21 0.21 94 1016.3
20260901205408 62 210 0.0 1.0 0.01 0.21 0.21 94 1016.2
20260901204508 62 210 0.0 2.0 0.01 0.21 0.21 94 1016.2
20260901203608 62 0 0.0 0.0 0.01 0.21 0.21 94 1016.0
20260901202708 62 210 0.0 1.0 0.01 0.21 0.21 94 1016.0
20260901201808 62 210 0.0 1.0 0.00 0.20 0.20 94 1015.9
20260901200908 62 0 0.0 0.0 0.00 0.20 0.20 94 1015.8
20260901200008 62 0 0.0 0.0 0.00 0.20 0.20 94 1016.0
20260901195108 62 0 0.0 0.0 0.00 0.20 0.20 94 1016.0
20260901194208 62 210 0.0 1.0 0.01 0.20 0.20 94 1015.9
20260901193308 62 210 0.0 3.0 0.01 0.20 0.20 94 1015.9
20260901192408 62 210 0.0 1.0 0.01 0.20 0.20 94 1016.0
20260901191508 62 210 0.0 1.0 0.01 0.20 0.20 94 1016.0
20260901190608 62 210 0.0 2.0 0.01 0.20 0.20 94 1016.1
20260901185709 62 210 0.0 1.0 0.02 0.20 0.20 94 1016.2
20260901184808 62 210 0.0 2.0 0.02 0.20 0.20 94 1016.1
20260901183908 62 210 0.0 2.0 0.01 0.19 0.19 94 1016.1
20260901183008 62 210 0.0 1.0 0.03 0.19 0.19 94 1016.2
20260901182108 62 210 0.0 1.0 0.04 0.19 0.19 94 1016.1
20260901181207 61 210 0.0 2.0 0.04 0.19 0.19 94 1016.0
20260901173608 61 211 0.0 1.0 0.02 0.17 0.17 94 1015.9
20260901170008 60 0 0.0 0.0 0.00 0.15 0.15 94 1015.8
20260901165107 60 0 0.0 0.0 0.01 0.15 0.15 94 1015.5
20260901164207 60 220 0.0 2.0 0.01 0.15 0.15 94 1015.5
20260901163307 60 219 0.0 4.0 0.01 0.15 0.15 94 1015.4
20260901162407 60 220 0.0 3.0 0.01 0.15 0.15 94 1015.6
20260901161507 60 217 0.0 2.0 0.01 0.15 0.15 94 1015.8
20260901160607 60 217 0.0 1.0 0.01 0.15 0.15 94 1015.9
20260901155707 60 216 0.0 4.0 0.00 0.14 0.14 94 1016.0
20260901154807 61 0 0.0 0.0 0.00 0.14 0.14 94 1016.0
20260901153907 61 214 0.0 3.0 0.00 0.14 0.14 94 1016.0
20260901153007 61 217 0.0 1.0 0.00 0.14 0.14 94 1016.1
20260901152107 61 217 0.0 2.0 0.00 0.14 0.14 94 1016.3
20260901150308 60 216 0.0 3.0 0.00 0.14 0.14 94 1015.8
20260901144507 60 197 0.0 5.0 0.00 0.14 0.14 94 1015.8
20260901143607 60 149 0.0 3.0 0.00 0.14 0.14 94 1015.8
20260901142707 60 149 0.0 2.0 0.00 0.14 0.14 94 1015.9
20260901141807 60 0 0.0 0.0 0.00 0.14 0.14 94 1016.0
20260901135107 60 0 0.0 0.0 0.01 0.14 0.14 94 1015.9